FREGAT R/B

Satellite information

Favourite Embed

Satellite Type and Status

ROCKET BODYIN ORBIT

Key statistics

Satellite FREGAT R/B at a glance.

Uptime

3079

Days in orbit

Revolutions

≈ 2.0

Per day

Orbit

HEO

HEO

Inclination

62.6

Latest

Satellite identification and parameters

Extended collection of information and parameters for FREGAT R/B.

Object identification

Identified? True

Debris? False

Object name: FREGAT R/B

International designator: 2017-027B

Object number (NORAD): 42720

Object ID (CCSDS): 42720

Country: COMMONWEALTH OF INDEPENDENT STATES (CIS)

Current information (Y/N): Y

RCS size: LARGE

Orbital parameters

Period: 713.211 minutes

Inclination: 62.5653 deg

SMA: 26442.689 km

Apoapsis: 39085.588 km

Periapsis: 1043.52 km

RAAN: 264.2888 deg

Eccentricy: 0.71933055

Argument of periapsis: 265.9522 deg

Mean anomaly: 16.8037 deg

Mean motion: 2.01903728 rev/day

Mean motion (dot): 0.00000089 rev/day2

B* drag term: 0.0078828063 1/REarth

Two-line elements (TLE)

Creation date: Oct. 25, 2025, 10:45 a.m.

Reference frame: TEME

Reference center: EARTH

Epoch: Oct. 24, 2025, 5:26 p.m. UTC

TLE line 0: 0 FREGAT R/B

TLE line 1: 1 42720U 17027B 25297.72660542 .00000089 00000-0 78828-2 0 9991

TLE line 2: 2 42720 62.5653 264.2888 7193306 265.9522 16.8037 2.01903728 62074

Live tracking on map

Real-time ground track for satellite FREGAT R/B.

In-orbit conjunctions

There are no conjunctions computed for FREGAT R/B, at the moment. Check back to stay up to date, as we update our databases every day.

Go to all conjunctions

Associated space launch

The Tundra or EKS (meaning Unified Space System) series of satellites is the next generation of Russian early warning satellites.

FREGAT R/B was lifted into orbit during the mission ‘Soyuz-2.1b/Fregat | EKS-2 (Tundra 2) (Kosmos 2518)’, on board a Soyuz 2.1b/Fregat space rocket.

The launch took place on May 25, 2017, 6:33 a.m. from 43/4 (43R).

For more information about the launch, click the button.

Launch to space Soyuz-2.1b/Fregat | EKS-2 (Tundra 2) (Kosmos 2518)
Soyuz-2.1b/Fregat | EKS-2 (Tundra 2) (Kosmos 2518)

Agency: N/A

Status: Launch Successful

Launch date: May 25, 2017, 6:33 a.m. UTC

Rocket: Soyuz 2.1b/Fregat

Launch pad: 43/4 (43R)

Location: Plesetsk Cosmodrome, Russian Federation

...

Latest news about this satellite

There are no fresh news available about this satellite. Check back as we update our databases every day.


Newsletter sign-up

Weekly statistics, charts and insights to help you stay on top of the space industry.